Location: Newark
(33.9035°S, 18.4112°E)
Time: 07:40:50
(UTC+00:00)

STARLINK-1072 - Pass Details

Date: 20 January 2020
Orbit: 348 x 351 km, 53.0° (Epoch: 23 February)

Event Time Altitude Azimuth Distance (km) Brightness Sun altitude
Exits shadow 02:30:31 26° 8° (N) 737 4.0 -15.8°
Maximum altitude 02:31:31 34° 50° (NE) 602 3.9 -15.6°
Drops below altitude 10° 02:34:15 10° 118° (ESE) 1,332 6.9 -15.2°
Sets 02:36:23 0° 127° (SE) 2,184 8.7 -14.8°
